Starlink 31239

operational
NORAD ID: 60093 Int'l Des: 2024-117 Owner: SPXS Country: US Constellation: starlink
LEOCIRCULAR

Starlink 31239について

説明を読み込み中...

リアルタイム位置

3D地球を読み込み中...

次回通過

高度履歴

Altitude vs Time

uPlot chart will show altitude changes over time

軌道要素

1 60093U 24117C 25351.46516671 -.00018565 00000-0 -61743-3 0 9996
2 60093 53.1601 59.3279 0001267 85.4604 274.6541 15.30138179 84294
Epoch: Dec 17, 2025 • Age: 21 hours

現在のステータス

高度 475.9 km
速度 7.63 km/s
衛星直下点 24.41°N, 127.22°W
打ち上げ日 Jun 23, 2024
運用期間 1.4 years
タイプ internet

技術仕様

分類 Payload
質量 730.00 kg
乾燥質量 700.00 kg
総質量 730.00 kg
長さ 0.30 m
直径 4.10 m
スパン 29.00 m
形状 Box + pan
製造者 SPXS
バスタイプ Starlink V2M
フェーズステータス In Orbit
所有者/国 SPXS/US

大規模コンステレーション

Loading constellations...